Regional Weather Roundup
Issued by NWS

Home | Current Version | Previous Version | Text Only | Print | Product List | Glossary On
Versions: 1 2 3 4 5 6 7 8 9 10 11 12 13 14 15 16 17 18 19 20 21 22 23 24 25 26 27 28 29 30 31 32 33 34 35 36 37 38 39 40 41 42 43 44 45 46 47 48 49 50
000
ASHW40 PHFO 222010
RWRHI

WEATHER ROUNDUP FOR HAWAII
NATIONAL WEATHER SERVICE HONOLULU HI
1000 AM HST MON DEC 22 2014

THIS IS AN AUTOMATED REPORT THAT HAS NOT BEEN QUALITY CONTROLLED.

NOTE..."FAIR" INDICATES FEW OR NO CLOUDS BELOW 12,000 FEET WITH NO
SIGNIFICANT WEATHER AND/OR OBSTRUCTIONS TO VISIBILITY.

* - THESE SITES REPORT LIMITED FIELDS

HIZ001>004-222100-
KAUAI-NIIHAU-

CITY           SKY/WX    TMP DP  RH WIND       PRES   REMARKS
LIHUE APT      LGT RAIN  68  62  81 N18       30.12R
PORT ALLEN*      N/A     73 N/A N/A W2G8        N/A
POIPU*           N/A     70 N/A N/A N10G22      N/A
PRINCEVILLE*     N/A     68 N/A N/A MISG        N/A
KOKOLE POINT*  NOT AVBL
MOLOAA DAIRY*  NOT AVBL
WAIMEA HTS*    NOT AVBL
PUU OPAE*      NOT AVBL
PUU LUA*       NOT AVBL
MAKAHA RIDGE*  NOT AVBL
$$

HIZ005>011-222100-
OAHU-

CITY           SKY/WX    TMP DP  RH WIND       PRES   REMARKS
HONOLULU       PTSUNNY   71  68  90 N8        30.04R
KALAELOA       PTSUNNY   73  66  78 VRB6      30.06R
KANEOHE MCB    CLOUDY    75  68  78 N23       30.05R
WHEELER FIELD  HVY RAIN  68  64  88 NW9       30.06R FOG
BELLOWS*       NOT AVBL
KAHUKU*        NOT AVBL
WHEELER*       NOT AVBL
WAIANAE HARBOR NOT AVBL
DILLINGHAM*      N/A     70  64  83 N3G13       N/A
KAHUKU TRN*      N/A     66  64  94 N12G26      N/A
KAWAILOA*        N/A     64  64 100 N12G21      N/A
KII*             N/A     70  66  88 CALM        N/A
MAKUA RANGE*     N/A     70  64  83 NE10G22     N/A
OAHU FOREST NW NOT AVBL
SCHOFIELD BRK*   N/A    N/A N/A N/A MISG        N/A
SCHOFIELD S*   NOT AVBL
WAIANAE VLY*   NOT AVBL
KUAOKALA*      NOT AVBL
HONOULIUULI*   NOT AVBL
MOKUOLOE IS*     N/A    N/A N/A N/A MISG        N/A
PALEHUA*       NOT AVBL
WAIAWA PHB*    NOT AVBL
$$

HIZ012>013-222100-
MOLOKAI-

CITY           SKY/WX    TMP DP  RH WIND       PRES   REMARKS
MOLOKAI AIRPT  MOSUNNY   76  69  79 N13G20    30.04S
KALAUPAPA      NOT AVBL
MAKAPULAPAI*   NOT AVBL
MOLOKAI 1*     NOT AVBL
PUU ALII*      NOT AVBL
$$

HIZ016-222100-
KAHOOLAWE-

CITY           SKY/WX    TMP DP  RH WIND       PRES   REMARKS
KAHOOLAWE*     NOT AVBL
HAKIOAWA*      NOT AVBL
HONOKANAIA*      N/A     83  65  54 SE3G10    30.04R
KANELOA*         N/A     77  66  69 NE6       29.24R
KEALIALALO*    NOT AVBL
LUA MAKIKA*    NOT AVBL
$$

HIZ014>015-222100-
LANAI-

CITY           SKY/WX    TMP DP  RH WIND       PRES   REMARKS
LANAI CITY     FAIR      78  61  55 N5        30.07F
LANAI 1*       NOT AVBL
$$

HIZ017>028-222100-
MAUI-

CITY           SKY/WX    TMP DP  RH WIND       PRES   REMARKS
KAHULUI        MOSUNNY   81  66  60 N8        30.03R
KAPALUA-W MAUI MOSUNNY   73  68  83 N14       30.03
HANA AIRPORT   SUNNY     77  66  69 W3        30.05S
HANA*          NOT AVBL
HALEAKALA SUMM   N/A     41  39  93 S6G26       N/A
MAALAEA BAY*   NOT AVBL
HALEAKALA*     NOT AVBL
KAUPO GAP*     NOT AVBL
KULA 1*          N/A     56  44  63 W5G12       N/A
$$

HIZ023>026-222100-
BIG ISLAND OF HAWAII COAST AND LOWER SLOPES-

CITY           SKY/WX    TMP DP  RH WIND       PRES   REMARKS
KAILUA KONA    SUNNY     81  63  54 NW8       30.00F
HILO           SUNNY     80  61  52 SE7       30.00S
HONOKAA*       NOT AVBL
KAWAIHAE MWT*  NOT AVBL
KAWAIHAE*        N/A     79 N/A N/A W9          N/A
SOUTH POINT*   NOT AVBL
UPOLU AIRPORT* NOT AVBL
KAMUELA*       CLEAR     73  55  53 W7        30.12S
HAKALAU*         N/A     59  41  52 E5G10       N/A
KALOKO-HONOKO* NOT AVBL
PALI 2*          N/A     72  59  64 SE7G13      N/A
KEALAKOMO*       N/A     90  77  66 E7          N/A  HX 102
KAUPULEHU*     NOT AVBL
KAPAPALA*        N/A     77  58  52 SE2G9       N/A
LOWER KAHUKU*  NOT AVBL
PUHE CS*       NOT AVBL
PUHO CS*       NOT AVBL
PTA KEAMUKU*     N/A     70  52  52 CALM        N/A
WAIKOLOA*      NOT AVBL
$$

HIZ027>028-222100-
BIG ISLAND OF HAWAII INTERIOR AND SUMMMITS-

CITY           SKY/WX    TMP DP  RH WIND       PRES   REMARKS
BRADSHAW FIELD MOSUNNY   59  43  55 W2        30.32S
MK VISITOR CEN NOT AVBL
MAUNA KEA*       N/A     32 -13  14 SW2         N/A
MAUNA LOA*       N/A     43  -8  11 MISG        N/A
MAUNA LOA 1*   NOT AVBL
PTA KIPUKA*      N/A     64  45  48 W3          N/A
PTA RANGE 17*    N/A     61  45  55 N5          N/A
PTA WEST*        N/A     64  48  55 NW7         N/A
NENE CABIN*    NOT AVBL
AHUMOA*        NOT AVBL
PTA PORTABLE*  NOT AVBL
PUU MALI*      NOT AVBL
$$

HIC003-222100-
NORTHWEST ISLANDS-

CITY           SKY/WX    TMP DP  RH WIND       PRES   REMARKS
MIDWAY ISLAND  SUNNY     64  48  55 E15       30.39F
MIDWAY NOS*    NOT AVBL
FRENCH FRIGATE NOT AVBL
$$

PHZ110>124-180-222100-
BUOY REPORTS

STATION/POSITION TIME  TEMP    WIND        PRES    WAVE   SWELL
                       AIR SEA DIR/SP/G            HT/PER HT/DIR
                 (UTC) (F)     (DEG/KT/KT) (MB)    (FT/S) (FT/D)
BUOY 51001       NOT AVBL
BUOY 51101       2000   67 76   20/ 19/ 23 1021.9R  12/16  10/270
BUOY 51100       2000   71 75  210/  4     1016.3F
BUOY 51003       1900   75 79   20/ 21/ 25 1016.2R  13/16  10
BUOY 51004       1856   78 78  100/ 16/ 17 1014.5   10/11   8/120
BARBERS PT BUOY  NOT AVBL
WAIMEA BAY BUOY  2000      77                N/A    14/17  10/300
KAILUA BAY BUOY  2000      77                N/A     9/ 9   3/ 40
LANAI BUOY       1900      78                N/A     5/17   3/270
BARBERS PT 2     2000      77                N/A     8/17   5/290
PAUWELA MAUI     2000      77                N/A     9/13   8/320
HILO             2000      78                N/A     8/15
KANEOHE BAY BUOY 2000      77                N/A    10/ 7   3/360
HANALEI KAUAI    NOT AVBL
KAHULUI HARBOR   2000   75 77  340/ 10/ 12 1016.5R
HONOLULU HARBOR  2000   70     340/  1/  6 1017.8R
KILO NALU        NOT AVBL
HILO HARBOR      2000   78      80/  2/  5 1015.4F
MOKUOLOE         2000   73 76   10/ 19/ 23 1017.9R
NAWILIWILI       2000      77                N/A
WHOTS BUOY       NOT AVBL
BUOY 51028       NOT AVBL
$$

......................KEY........................................
  SKY/WX - SKY CONDITIONS/PRESENT WEATHER
  TMP    - TEMPERATURE IN FAHRENHEIT
  DWPT   - DEWPOINT IN FAHRENHEIT
  RH     - RELATIVE HUMIDITY IN PERCENT
  WIND   - DIRECTION AND SPEED /MPH FOR ISLANDS...KTS FOR BUOYS/
  PRES   - MEAN SEA LEVEL PRESSURE IN INCHES OF HG
  VSB    - VISIBILITY IN MILES
  HX     - HEAT INDEX
  WCI    - WIND CHILL INDEX
  VRB    - VARIABLE WIND DIRECTION
  N/A    - NOT AVAILABLE


USA.gov is the U.S. government's official web portal to all federal, state and local government web resources and services.